[[{"header":{"parameterUnit":"m.s-1","parameterCategory":2,"la1":30.2991,"la2":30.254,"lo1":-89.0895,"lo2":-89.0444,"dy":0.0017,"dx":0.0017,"nx":28,"ny":28,"refTime":"2025-04-15T21:00:00:Z","depth":"0","parameterNumber":2,"parameterNumberName":"U-component_of_CURRENTS"},"data":[0,0,0,0,0,0,0,0,0,0,0,0,0,0,0,0,0,0,0,0,0,0,0,0,0,0,0,0,0,0,0,0,0,0,0,0,0,0,0,0,0,0,0,0,0,0,0,0,0,0,0,0,0,0,0,0,0,0,-0.1761,-0.1762,0,-0.1778,-0.1778,-0.1778,-0.1778,-0.1778,-0.1778,-0.1778,-0.1761,-0.1761,-0.176,0,0,0,0,0,0,0,0,0,0,0,0,0,-0.1724,-0.1725,-0.1761,-0.1762,-0.1762,-0.1778,-0.1778,-0.1778,-0.1778,-0.1778,-0.1778,-0.1778,-0.1761,-0.1761,-0.176,0,0,0,0,0,0,0,0,0,0,0,0,0,-0.1739,-0.1725,-0.1761,-0.1765,-0.1766,-0.1778,-0.1778,-0.1778,-0.1778,-0.1778,-0.1778,-0.1778,-0.1761,-0.1761,-0.176,-0.176,0,0,-0.1759,-0.1758,0,0,0,0,0,0,0,0,-0.1738,-0.174,-0.1764,-0.1765,-0.1765,-0.1777,-0.1759,-0.1771,-0.1778,-0.1772,-0.1778,-0.1778,-0.1764,-0.1763,-0.1766,-0.1759,-0.1758,-0.1759,-0.1758,-0.1758,-0.1758,0,0,0,0,0,0,0,-0.1737,-0.174,-0.1767,-0.1765,-0.1765,-0.1764,-0.1766,-0.1761,-0.1767,-0.1773,-0.1773,-0.1777,-0.1764,-0.1766,-0.1765,-0.1758,-0.1759,-0.1758,-0.1758,-0.1757,-0.1738,-0.1738,0,0,0,0,0,0,-0.1738,-0.1739,-0.1766,-0.1767,-0.1753,-0.1765,-0.1767,-0.1772,-0.1768,-0.1768,-0.1777,-0.1777,-0.1767,-0.1766,-0.1764,-0.1747,-0.1758,-0.1757,-0.1757,-0.1738,-0.1738,-0.1738,0,0,0,0,0,0,-0.1738,-0.1741,-0.1765,-0.1754,-0.1757,-0.1766,-0.1772,-0.1773,-0.1776,-0.1772,-0.1771,-0.1779,-0.1767,-0.1765,-0.1756,-0.1747,-0.1757,-0.1757,-0.1738,-0.1738,-0.1738,-0.1722,0,0,0,0,0,0,-0.1736,-0.174,-0.1741,-0.1754,-0.1758,-0.1775,-0.1772,-0.1773,-0.1779,-0.1779,-0.1773,-0.1771,-0.1767,-0.1757,-0.1756,-0.1746,-0.1756,-0.1739,-0.1738,-0.1738,-0.1723,-0.1722,-0.172,0,0,0,0,0,-0.1735,-0.1738,-0.1741,-0.1744,-0.176,-0.1775,-0.1777,-0.1781,-0.1779,-0.1782,-0.1774,-0.1772,-0.1754,-0.1757,-0.1755,-0.1745,-0.1739,-0.1738,-0.1738,-0.1724,-0.1722,-0.172,0,0,0,0,0,0,-0.1726,-0.1739,-0.1743,-0.175,-0.1763,-0.1776,-0.1777,-0.1782,-0.1779,-0.1776,-0.1769,-0.1767,-0.1752,-0.1755,-0.1758,-0.1739,-0.1746,-0.1745,-0.1736,-0.1734,-0.1733,-0.1749,-0.1756,0,0,0,0,0,-0.1724,-0.1725,-0.1744,-0.1748,-0.1755,-0.1766,-0.1771,-0.1778,-0.178,-0.1779,-0.1773,-0.1764,-0.175,-0.1748,-0.1737,-0.1732,-0.1745,-0.1725,-0.1723,-0.1722,-0.1735,-0.1753,-0.1755,-0.1736,-0.1736,-0.1736,0,0,-0.1719,-0.1728,-0.1727,-0.1746,-0.1753,-0.1772,-0.1769,-0.178,-0.1786,-0.1777,-0.1773,-0.1756,-0.1746,-0.1732,-0.1727,-0.1735,-0.173,-0.1722,-0.172,-0.1734,-0.1753,-0.1755,-0.1757,-0.1736,-0.1736,-0.1736,0,0,-0.1721,-0.1721,-0.1729,-0.1743,-0.1762,-0.1771,-0.1776,-0.1789,-0.1783,-0.1783,-0.1767,-0.1748,-0.174,-0.1724,-0.1716,-0.1704,-0.1717,-0.17,-0.1711,-0.1728,-0.173,-0.1732,-0.1734,-0.1736,-0.1705,-0.1705,-0.1705,0,-0.1717,-0.1732,-0.1734,-0.1756,-0.1766,-0.1773,-0.1793,-0.179,-0.1796,-0.1793,-0.1782,-0.1763,-0.1736,-0.1726,-0.1708,-0.17,-0.1715,-0.1715,-0.1727,-0.173,-0.1732,-0.1733,-0.1736,-0.1704,-0.1705,-0.1705,-0.1705,0,-0.1734,-0.1747,-0.1753,-0.178,-0.1793,-0.1806,-0.1815,-0.1817,-0.1809,-0.1808,-0.1794,-0.1763,-0.1757,-0.1734,-0.171,-0.1709,-0.1714,-0.1718,-0.1733,-0.1733,-0.1734,-0.1737,-0.1703,-0.1704,-0.1704,-0.1704,0,0,-0.1715,-0.1758,-0.1756,-0.1775,-0.1805,-0.1816,-0.1828,-0.1838,-0.1845,-0.1834,-0.1841,-0.1789,-0.1778,-0.1768,-0.1738,-0.174,-0.1735,-0.1734,-0.1735,-0.1738,-0.1771,-0.1729,-0.1728,-0.175,-0.1751,-0.1751,-0.1759,0,-0.1726,-0.1764,-0.1783,-0.1812,-0.1834,-0.1847,-0.186,-0.1869,-0.1865,-0.187,-0.1841,-0.1828,-0.179,-0.1776,-0.1774,-0.1748,-0.1746,-0.1732,-0.177,-0.1771,-0.1735,-0.1732,-0.1596,-0.1588,-0.1762,-0.1763,-0.1763,0,-0.1737,-0.1759,-0.1793,-0.1832,-0.1842,-0.186,-0.1882,-0.1891,-0.1902,-0.1903,-0.1903,-0.1883,-0.1863,-0.1833,-0.1822,-0.182,-0.1792,-0.1777,-0.1777,-0.1751,-0.1735,-0.162,-0.1588,-0.1532,-0.1768,-0.1768,-0.1767,0,-0.1714,-0.1763,-0.1784,-0.1798,-0.1846,-0.1857,-0.1874,-0.1897,-0.19,-0.1917,-0.1929,-0.1927,-0.1912,-0.1905,-0.185,-0.1843,-0.1849,-0.1838,-0.1778,-0.1775,-0.1673,-0.1659,-0.1595,-0.1836,-0.1836,-0.1836,-0.1836,0,-0.171,-0.1721,-0.1774,-0.1781,-0.1803,-0.1844,-0.1859,-0.1882,-0.1915,-0.1927,-0.1934,-0.1944,-0.193,-0.1922,-0.1885,-0.1843,-0.1879,-0.1783,-0.1778,-0.166,-0.1646,-0.1606,-0.1646,-0.1836,-0.1836,-0.1836,-0.1836,0,-0.1667,-0.1704,-0.1731,-0.178,-0.1791,-0.1801,-0.1839,-0.185,-0.1896,-0.1917,-0.192,-0.1953,-0.1949,-0.1932,-0.1912,-0.1871,-0.1803,-0.1815,-0.1669,-0.1646,-0.1534,-0.158,-0.1612,-0.1565,-0.1755,-0.1754,-0.1754,0,-0.1651,-0.1661,-0.171,-0.1714,-0.1727,-0.1749,-0.1761,-0.1822,-0.1841,-0.1915,-0.1923,-0.1939,-0.1923,-0.1896,-0.1837,-0.1785,-0.1768,-0.1626,-0.1579,-0.1512,-0.156,-0.1614,-0.1576,-0.1429,-0.1425,-0.1422,-0.142,0,-0.1602,-0.1619,-0.1633,-0.1647,-0.166,-0.1676,-0.1705,-0.1726,-0.1801,-0.1831,-0.1864,-0.186,-0.1843,-0.1731,-0.1679,-0.1626,-0.1576,-0.1568,-0.1533,-0.1333,-0.1356,-0.1311,-0.1442,-0.1396,-0.1398,-0.14,-0.1401,-0.1402,-0.1554,-0.155,-0.1565,-0.1565,-0.158,-0.1585,-0.1569,-0.1618,-0.1642,-0.1653,-0.1746,-0.1694,-0.1627,-0.1533,-0.1471,-0.1297,-0.1435,-0.1211,-0.1281,-0.1348,-0.1276,-0.1354,-0.1287,-0.1289,-0.1291,-0.1292,-0.1293,0,-0.1487,-0.1476,-0.1475,-0.1472,-0.145,-0.1487,-0.1508,-0.1476,-0.1466,-0.1485,-0.1484,-0.1423,-0.1296,-0.1218,-0.1084,-0.1009,-0.0976,-0.0978,-0.099,-0.097,-0.1031,-0.0982,-0.0804,-0.0804,-0.0804,-0.0804,-0.0804,-0.0804,-0.1442,-0.1409,-0.1402,-0.1333,-0.1327,-0.1267,-0.1258,-0.1225,-0.1208,-0.1128,-0.1081,-0.1081,-0.1068,-0.1107,-0.0933,-0.0849,-0.0837,-0.083,-0.0904,-0.0897,-0.0922,-0.0946,-0.0903,-0.0711,-0.0711,-0.0727,-0.0728,-0.0728]},{"header":{"parameterUnit":"m.s-1","parameterCategory":2,"la1":30.2991,"la2":30.254,"lo1":-89.0895,"lo2":-89.0444,"dy":0.0017,"dx":0.0017,"nx":28,"ny":28,"refTime":"2025-04-15T21:00:00:Z","depth":"0","parameterNumber":3,"parameterNumberName":"V-component_of_CURRENTS"},"data":[0,0,0,0,0,0,0,0,0,0,0,0,0,0,0,0,0,0,0,0,0,0,0,0,0,0,0,0,0,0,0,0,0,0,0,0,0,0,0,0,0,0,0,0,0,0,0,0,0,0,0,0,0,0,0,0,0,0,-0.0591,-0.0591,0,-0.0559,-0.0558,-0.0557,-0.052,-0.052,-0.052,-0.052,-0.0369,-0.0366,-0.0362,0,0,0,0,0,0,0,0,0,0,0,0,0,-0.0571,-0.0571,-0.0591,-0.0591,-0.0591,-0.0559,-0.0558,-0.0557,-0.052,-0.052,-0.052,-0.0519,-0.0371,-0.0366,-0.0362,0,0,0,0,0,0,0,0,0,0,0,0,0,-0.056,-0.0571,-0.0591,-0.0571,-0.057,-0.0559,-0.0558,-0.0557,-0.052,-0.052,-0.052,-0.0519,-0.0372,-0.0367,-0.0361,-0.0332,0,0,-0.0343,-0.0341,0,0,0,0,0,0,0,0,-0.056,-0.056,-0.0574,-0.0573,-0.0571,-0.0547,-0.0496,-0.0477,-0.052,-0.0535,-0.052,-0.0519,-0.042,-0.0411,-0.0402,-0.0325,-0.0318,-0.0343,-0.0339,-0.0337,-0.0335,0,0,0,0,0,0,0,-0.0561,-0.0561,-0.0574,-0.0574,-0.0572,-0.0547,-0.0546,-0.0492,-0.0475,-0.0534,-0.0532,-0.0534,-0.0418,-0.0407,-0.0397,-0.0316,-0.0343,-0.0338,-0.0334,-0.0332,-0.0178,-0.0178,0,0,0,0,0,0,-0.0576,-0.0562,-0.0575,-0.0574,-0.0569,-0.0549,-0.0546,-0.0551,-0.0478,-0.0468,-0.0535,-0.0533,-0.0417,-0.0404,-0.0392,-0.0345,-0.0337,-0.0332,-0.0328,-0.0179,-0.0178,-0.0177,0,0,0,0,0,0,-0.0576,-0.0578,-0.0577,-0.057,-0.0568,-0.055,-0.0556,-0.0551,-0.0537,-0.0481,-0.0468,-0.0526,-0.0416,-0.04,-0.0345,-0.0339,-0.0329,-0.0324,-0.018,-0.0179,-0.0178,-0.0257,0,0,0,0,0,0,-0.0575,-0.0578,-0.0581,-0.0571,-0.057,-0.0567,-0.0556,-0.0551,-0.0541,-0.0538,-0.0468,-0.0455,-0.0415,-0.0354,-0.034,-0.0331,-0.0319,-0.018,-0.0179,-0.0178,-0.0255,-0.0258,-0.0262,0,0,0,0,0,-0.0575,-0.0579,-0.0581,-0.0583,-0.0577,-0.0567,-0.0563,-0.0546,-0.0541,-0.0532,-0.0491,-0.0457,-0.0335,-0.0349,-0.0332,-0.0322,-0.0181,-0.018,-0.0178,-0.0253,-0.0258,-0.0261,0,0,0,0,0,0,-0.0563,-0.0576,-0.0578,-0.0584,-0.0577,-0.0562,-0.0554,-0.0547,-0.051,-0.0503,-0.045,-0.0433,-0.0385,-0.0338,-0.0354,-0.0272,-0.0251,-0.0246,-0.0314,-0.0317,-0.0321,-0.0325,-0.0315,0,0,0,0,0,-0.0567,-0.0578,-0.0579,-0.0583,-0.0581,-0.0569,-0.0562,-0.0554,-0.0526,-0.051,-0.0464,-0.041,-0.0365,-0.0331,-0.0282,-0.0234,-0.0203,-0.0213,-0.0217,-0.022,-0.021,-0.0163,-0.0162,-0.0172,-0.0172,-0.0172,0,0,-0.0566,-0.0573,-0.058,-0.0582,-0.0575,-0.0575,-0.0562,-0.0555,-0.055,-0.0497,-0.0463,-0.042,-0.0356,-0.0312,-0.0284,-0.027,-0.0206,-0.0218,-0.0222,-0.021,-0.0161,-0.016,-0.0159,-0.0171,-0.0172,-0.0172,0,0,-0.0569,-0.0574,-0.0584,-0.0582,-0.058,-0.0574,-0.0574,-0.0558,-0.0544,-0.0512,-0.0478,-0.0432,-0.0356,-0.0316,-0.0285,-0.0271,-0.0231,-0.0252,-0.0266,-0.0221,-0.022,-0.0219,-0.0212,-0.0209,-0.0248,-0.0248,-0.0248,0,-0.057,-0.0585,-0.0582,-0.0587,-0.059,-0.0577,-0.0583,-0.0568,-0.0534,-0.0522,-0.0505,-0.0407,-0.0358,-0.0308,-0.0307,-0.0279,-0.0259,-0.0264,-0.0228,-0.0226,-0.0223,-0.0216,-0.0212,-0.0252,-0.0252,-0.0251,-0.0251,0,-0.058,-0.0591,-0.0594,-0.0605,-0.06,-0.0604,-0.0592,-0.0578,-0.0562,-0.0545,-0.0493,-0.0429,-0.0369,-0.035,-0.0323,-0.0279,-0.0277,-0.0248,-0.0227,-0.0227,-0.0219,-0.0214,-0.0257,-0.0256,-0.0255,-0.0254,0,0,-0.0598,-0.0605,-0.0609,-0.062,-0.0615,-0.0617,-0.0606,-0.0596,-0.0592,-0.0543,-0.0525,-0.0448,-0.0415,-0.0377,-0.0335,-0.0291,-0.0274,-0.0266,-0.0262,-0.0276,-0.0204,-0.024,-0.0238,-0.0243,-0.0242,-0.0241,-0.0219,0,-0.0614,-0.0638,-0.0631,-0.065,-0.0662,-0.0646,-0.0641,-0.0625,-0.0599,-0.0576,-0.051,-0.0473,-0.0426,-0.0403,-0.0352,-0.0285,-0.0257,-0.0284,-0.0184,-0.0182,-0.0228,-0.0231,-0.0117,-0.009,-0.0214,-0.0213,-0.0212,0,-0.0636,-0.0651,-0.0675,-0.0688,-0.0691,-0.0694,-0.0689,-0.0682,-0.0643,-0.0617,-0.0561,-0.0516,-0.0444,-0.0411,-0.0293,-0.0313,-0.0266,-0.0218,-0.0216,-0.0212,-0.0207,-0.0099,-0.0075,0.0144,-0.0203,-0.0204,-0.0205,0,-0.0667,-0.0685,-0.071,-0.0715,-0.072,-0.0722,-0.0722,-0.0694,-0.0693,-0.0645,-0.0633,-0.0538,-0.0495,-0.0401,-0.0314,-0.0297,-0.0204,-0.0166,-0.016,-0.0164,-0.0025,-0.0019,0.0216,-0.0096,-0.0096,-0.0096,-0.0096,0,-0.07,-0.072,-0.073,-0.0745,-0.0775,-0.0758,-0.0775,-0.0757,-0.0732,-0.0735,-0.0658,-0.0638,-0.0488,-0.0425,-0.0334,-0.0243,-0.0218,-0.0164,-0.0152,-0.0054,-0.0051,0.0178,0.0246,-0.0096,-0.0096,-0.0096,-0.0096,0,-0.0732,-0.074,-0.0772,-0.0786,-0.0792,-0.0814,-0.0825,-0.0835,-0.08,-0.0799,-0.0789,-0.0705,-0.063,-0.0517,-0.0378,-0.0282,-0.0073,-0.0173,-0.0097,-0.0077,0.014,0.0196,0.0356,0.0459,-0.0137,-0.0138,-0.0138,0,-0.0749,-0.0769,-0.0807,-0.0835,-0.0845,-0.0871,-0.0891,-0.0872,-0.0882,-0.0846,-0.0854,-0.0792,-0.0773,-0.0603,-0.0401,-0.0262,-0.0114,-0.0081,-0.0019,0.0168,0.0241,0.0268,0.0346,0.0129,0.0131,0.0132,0.0134,0,-0.0777,-0.0792,-0.0822,-0.0881,-0.0916,-0.0955,-0.0979,-0.1001,-0.098,-0.0988,-0.0988,-0.0978,-0.0801,-0.0595,-0.0409,-0.0277,0.0099,-0.0053,0.0169,0.0484,0.0508,0.0607,0.0063,0.0146,0.0145,0.0144,0.0143,0.0143,-0.0794,-0.0828,-0.087,-0.0926,-0.0974,-0.103,-0.1063,-0.1098,-0.1137,-0.1163,-0.1131,-0.1079,-0.0696,-0.0415,-0.0268,0.023,0.0144,0.0411,0.0462,0.047,0.0588,0.0021,0.0091,0.009,0.0088,0.0087,0.0086,0,-0.0815,-0.0855,-0.0909,-0.0984,-0.1049,-0.1057,-0.1114,-0.1138,-0.1205,-0.1229,-0.1263,-0.0853,-0.0509,-0.0084,0.0547,0.0784,0.0876,0.0913,0.1073,0.1127,0.0691,0.0728,0.0906,0.0906,0.0906,0.0906,0.0905,0.0905,-0.0834,-0.0889,-0.092,-0.1027,-0.108,-0.1147,-0.1179,-0.1205,-0.1205,-0.1125,-0.0938,-0.0832,-0.0113,0.0733,0.1327,0.1383,0.1606,0.1544,0.1601,0.1419,0.138,0.1343,0.1401,0.1718,0.1719,0.2104,0.2108,0.2111]}],[{"header":{"parameterUnit":"m.s-1","parameterCategory":2,"la1":30.2991,"la2":30.254,"lo1":-89.0895,"lo2":-89.0444,"dy":0.0017,"dx":0.0017,"nx":28,"ny":28,"refTime":"2025-04-15T21:00:00:Z","depth":"2","parameterNumber":2,"parameterNumberName":"U-component_of_CURRENTS"},"data":[0,0,0,0,0,0,0,0,0,0,0,0,0,0,0,0,0,0,0,0,0,0,0,0,0,0,0,0,0,0,0,0,0,0,0,0,0,0,0,0,0,0,0,0,0,0,0,0,0,0,0,0,0,0,0,0,0,0,-0.2422,-0.2422,0,-0.2519,-0.2521,-0.2523,-0.249,-0.2487,-0.2484,-0.2482,-0.2293,-0.2291,-0.2289,0,0,0,0,0,0,0,0,0,0,0,0,0,-0.2429,-0.2428,-0.2422,-0.2422,-0.2423,-0.2519,-0.2521,-0.2523,-0.2491,-0.2487,-0.2484,-0.248,-0.2294,-0.2291,-0.2288,0,0,0,0,0,0,0,0,0,0,0,0,0,-0.2474,-0.2428,-0.2422,-0.2412,-0.2411,-0.2518,-0.2521,-0.2524,-0.2492,-0.2487,-0.2483,-0.2479,-0.2295,-0.2291,-0.2288,-0.2355,0,0,-0.2278,-0.2276,0,0,0,0,0,0,0,0,-0.2471,-0.2474,-0.2413,-0.2413,-0.2412,-0.248,-0.2454,-0.245,-0.2493,-0.2471,-0.2482,-0.2477,-0.2327,-0.2321,-0.2365,-0.2346,-0.2338,-0.2277,-0.2275,-0.2274,-0.2273,0,0,0,0,0,0,0,-0.2467,-0.2471,-0.2469,-0.2413,-0.2413,-0.2477,-0.2477,-0.2456,-0.2424,-0.2472,-0.2468,-0.2466,-0.2325,-0.2369,-0.2359,-0.2335,-0.2277,-0.2274,-0.2272,-0.2271,-0.2207,-0.2207,0,0,0,0,0,0,-0.2431,-0.2467,-0.2466,-0.2471,-0.2421,-0.2479,-0.248,-0.247,-0.243,-0.2419,-0.2469,-0.2464,-0.2377,-0.2364,-0.2352,-0.2262,-0.2274,-0.2271,-0.2269,-0.2207,-0.2207,-0.2207,0,0,0,0,0,0,-0.2431,-0.243,-0.2462,-0.2465,-0.2472,-0.2481,-0.2472,-0.2474,-0.2465,-0.2429,-0.2414,-0.2449,-0.2373,-0.2357,-0.2278,-0.2259,-0.2269,-0.2266,-0.2206,-0.2207,-0.2207,-0.2186,0,0,0,0,0,0,-0.2431,-0.2429,-0.2407,-0.2462,-0.247,-0.2468,-0.2475,-0.2479,-0.2469,-0.2462,-0.2408,-0.239,-0.2368,-0.2283,-0.2274,-0.2255,-0.2263,-0.2206,-0.2206,-0.2207,-0.2186,-0.2186,-0.2185,0,0,0,0,0,-0.2431,-0.2421,-0.2406,-0.2405,-0.244,-0.2466,-0.2476,-0.2476,-0.2472,-0.2456,-0.2419,-0.2389,-0.2282,-0.228,-0.227,-0.2249,-0.2205,-0.2206,-0.2207,-0.2187,-0.2186,-0.2185,0,0,0,0,0,0,-0.2397,-0.2418,-0.2402,-0.2391,-0.2394,-0.2454,-0.2457,-0.2461,-0.2439,-0.2423,-0.2384,-0.2364,-0.2294,-0.2283,-0.2282,-0.2238,-0.2244,-0.2243,-0.2232,-0.2231,-0.2231,-0.2258,-0.226,0,0,0,0,0,-0.2382,-0.2381,-0.2396,-0.2378,-0.2385,-0.2418,-0.2428,-0.2429,-0.2423,-0.2412,-0.2363,-0.2331,-0.2311,-0.227,-0.2247,-0.2215,-0.2221,-0.2201,-0.2201,-0.22,-0.2219,-0.2221,-0.2222,-0.221,-0.221,-0.221,0,0,-0.2363,-0.2372,-0.2367,-0.2371,-0.2391,-0.2414,-0.2414,-0.2422,-0.2427,-0.2391,-0.2352,-0.2316,-0.2302,-0.2266,-0.2235,-0.2236,-0.2203,-0.2201,-0.2201,-0.2221,-0.2222,-0.2223,-0.2224,-0.2211,-0.2211,-0.2211,0,0,-0.2343,-0.2332,-0.2331,-0.2347,-0.2357,-0.239,-0.2376,-0.2398,-0.2384,-0.2361,-0.2339,-0.2283,-0.2248,-0.2229,-0.2225,-0.2211,-0.2202,-0.2202,-0.2213,-0.2213,-0.2214,-0.2215,-0.2203,-0.2203,-0.2199,-0.2199,-0.2199,0,-0.2309,-0.232,-0.2329,-0.2344,-0.2367,-0.2371,-0.2391,-0.24,-0.2378,-0.2364,-0.2329,-0.2295,-0.2245,-0.2236,-0.2225,-0.2207,-0.221,-0.2208,-0.2211,-0.2212,-0.2214,-0.2201,-0.2202,-0.2199,-0.2199,-0.2199,-0.2199,0,-0.2314,-0.2315,-0.2322,-0.2347,-0.2366,-0.2386,-0.2403,-0.2381,-0.2368,-0.237,-0.2324,-0.228,-0.2251,-0.2233,-0.2222,-0.2212,-0.221,-0.2209,-0.2209,-0.2213,-0.22,-0.2201,-0.2197,-0.2198,-0.2198,-0.2198,0,0,-0.2272,-0.2316,-0.232,-0.2324,-0.238,-0.239,-0.2406,-0.2417,-0.2413,-0.2371,-0.2362,-0.2316,-0.2275,-0.227,-0.2235,-0.2236,-0.2216,-0.2225,-0.2226,-0.2208,-0.2214,-0.2123,-0.2115,-0.2217,-0.2217,-0.2218,-0.2193,0,-0.2271,-0.2299,-0.2338,-0.236,-0.2378,-0.2409,-0.2434,-0.2437,-0.2422,-0.2397,-0.2363,-0.233,-0.2297,-0.2262,-0.2258,-0.224,-0.2222,-0.2223,-0.2219,-0.2219,-0.2133,-0.2114,-0.1938,-0.1894,-0.2194,-0.2194,-0.2194,0,-0.2269,-0.2295,-0.2322,-0.2367,-0.2381,-0.239,-0.2423,-0.2441,-0.2434,-0.2417,-0.2385,-0.2356,-0.2328,-0.2298,-0.2279,-0.2285,-0.2242,-0.2233,-0.2231,-0.2162,-0.213,-0.1943,-0.1884,-0.2195,-0.2195,-0.2195,-0.2195,0,-0.2237,-0.2279,-0.2298,-0.2319,-0.2377,-0.2373,-0.2397,-0.2419,-0.2431,-0.24,-0.2398,-0.2374,-0.2348,-0.2327,-0.2282,-0.2279,-0.2279,-0.2263,-0.2143,-0.2136,-0.1994,-0.1973,-0.2239,-0.2239,-0.2239,-0.2239,-0.2239,0,-0.224,-0.2247,-0.2261,-0.2274,-0.2285,-0.2332,-0.2341,-0.2355,-0.2381,-0.2392,-0.2378,-0.2383,-0.2359,-0.2349,-0.2305,-0.2228,-0.2283,-0.2145,-0.2124,-0.1979,-0.1958,-0.2236,-0.2236,-0.2238,-0.2238,-0.2238,-0.2238,0,-0.2195,-0.2226,-0.2214,-0.2247,-0.2261,-0.2243,-0.23,-0.2305,-0.2343,-0.2354,-0.2344,-0.2384,-0.2367,-0.2343,-0.2311,-0.2238,-0.2185,-0.2135,-0.1959,-0.1916,-0.2036,-0.2035,-0.1997,-0.1993,-0.199,-0.1988,-0.1986,0,-0.2167,-0.2158,-0.2164,-0.2158,-0.2158,-0.2163,-0.2192,-0.2252,-0.227,-0.2355,-0.2358,-0.2365,-0.2323,-0.2259,-0.2138,-0.2024,-0.2117,-0.1809,-0.1755,-0.2028,-0.2011,-0.2015,-0.2019,-0.1553,-0.1548,-0.1543,-0.154,0,-0.2085,-0.2073,-0.2074,-0.207,-0.206,-0.2086,-0.2116,-0.2149,-0.2233,-0.2232,-0.2273,-0.2249,-0.2183,-0.1992,-0.1848,-0.1765,-0.1814,-0.1712,-0.2045,-0.1643,-0.1607,-0.1592,-0.161,-0.15,-0.1504,-0.1507,-0.1509,-0.1511,-0.1984,-0.1956,-0.1949,-0.1939,-0.1948,-0.1973,-0.195,-0.2005,-0.2011,-0.2003,-0.2117,-0.2007,-0.1947,-0.1628,-0.1507,-0.1404,-0.1529,-0.1447,-0.1461,-0.1481,-0.1434,-0.1396,-0.124,-0.1243,-0.1245,-0.1246,-0.1248,0,-0.1842,-0.1841,-0.183,-0.1807,-0.1774,-0.183,-0.1873,-0.1814,-0.1754,-0.1813,-0.1775,-0.1542,-0.1367,-0.1336,-0.1091,-0.1004,-0.0992,-0.0973,-0.0975,-0.1014,-0.1049,-0.0982,-0.0668,-0.0666,-0.0664,-0.0663,0,0,-0.1764,-0.1712,-0.1723,-0.1621,-0.1613,-0.1526,-0.1514,-0.1452,-0.1447,-0.1369,-0.1316,-0.1365,-0.1338,-0.1037,-0.0923,-0.0783,-0.0906,-0.0728,-0.1194,-0.1242,-0.1276,-0.1315,-0.1255,0,0,0,0,0]},{"header":{"parameterUnit":"m.s-1","parameterCategory":2,"la1":30.2991,"la2":30.254,"lo1":-89.0895,"lo2":-89.0444,"dy":0.0017,"dx":0.0017,"nx":28,"ny":28,"refTime":"2025-04-15T21:00:00:Z","depth":"2","parameterNumber":3,"parameterNumberName":"V-component_of_CURRENTS"},"data":[0,0,0,0,0,0,0,0,0,0,0,0,0,0,0,0,0,0,0,0,0,0,0,0,0,0,0,0,0,0,0,0,0,0,0,0,0,0,0,0,0,0,0,0,0,0,0,0,0,0,0,0,0,0,0,0,0,0,-0.0252,-0.0252,0,-0.0181,-0.0179,-0.0177,-0.0155,-0.0156,-0.0157,-0.0159,-0.0088,-0.0086,-0.0083,0,0,0,0,0,0,0,0,0,0,0,0,0,-0.0193,-0.0194,-0.0252,-0.0252,-0.0252,-0.0181,-0.0179,-0.0177,-0.0155,-0.0156,-0.0158,-0.0159,-0.0089,-0.0086,-0.0082,0,0,0,0,0,0,0,0,0,0,0,0,0,-0.0171,-0.0195,-0.0252,-0.0239,-0.0238,-0.0181,-0.0179,-0.0177,-0.0154,-0.0156,-0.0158,-0.016,-0.0091,-0.0086,-0.0082,-0.0018,0,0,-0.0068,-0.0066,0,0,0,0,0,0,0,0,-0.0173,-0.0172,-0.0241,-0.024,-0.0239,-0.0187,-0.0133,-0.0127,-0.0154,-0.0176,-0.0159,-0.0161,-0.0126,-0.0119,-0.0088,-0.0015,-0.0012,-0.0068,-0.0065,-0.0063,-0.0062,0,0,0,0,0,0,0,-0.0174,-0.0174,-0.0214,-0.0241,-0.024,-0.0177,-0.0177,-0.013,-0.0135,-0.0174,-0.0175,-0.0181,-0.0125,-0.0092,-0.0086,-0.0011,-0.0068,-0.0064,-0.0061,-0.0059,0.0059,0.006,0,0,0,0,0,0,-0.021,-0.0177,-0.0216,-0.0213,-0.022,-0.0179,-0.0177,-0.0194,-0.0135,-0.0131,-0.018,-0.0181,-0.0099,-0.0092,-0.0084,-0.0082,-0.0063,-0.0059,-0.0056,0.0059,0.0059,0.006,0,0,0,0,0,0,-0.0209,-0.0214,-0.0219,-0.02,-0.0197,-0.018,-0.0197,-0.0192,-0.0183,-0.0141,-0.0135,-0.0182,-0.01,-0.009,-0.008,-0.0076,-0.0057,-0.0053,0.0058,0.0059,0.006,-0.0028,0,0,0,0,0,0,-0.0207,-0.0214,-0.0234,-0.0203,-0.02,-0.0216,-0.0196,-0.0189,-0.0188,-0.0188,-0.014,-0.0134,-0.0101,-0.0087,-0.0076,-0.007,-0.0049,0.0058,0.0059,0.006,-0.0026,-0.0031,-0.0035,0,0,0,0,0,-0.0206,-0.0225,-0.0235,-0.0241,-0.023,-0.0218,-0.0209,-0.0195,-0.0187,-0.019,-0.0167,-0.0137,-0.0072,-0.0084,-0.007,-0.0063,0.0057,0.0058,0.0059,-0.0024,-0.003,-0.0035,0,0,0,0,0,0,-0.0212,-0.0224,-0.0235,-0.026,-0.0259,-0.0219,-0.0214,-0.0204,-0.018,-0.0181,-0.0139,-0.0132,-0.0119,-0.0074,-0.0088,-0.0023,0.0003,0.0006,-0.0065,-0.007,-0.0074,-0.0062,-0.0046,0,0,0,0,0,-0.0226,-0.0242,-0.0247,-0.0268,-0.0268,-0.0242,-0.0234,-0.0228,-0.0207,-0.0197,-0.0171,-0.013,-0.0093,-0.0076,-0.0039,-0.0004,0.0038,0.0015,0.001,0.0006,0.0028,0.008,0.0081,0.0063,0.0063,0.0063,0,0,-0.0233,-0.0244,-0.0254,-0.027,-0.0257,-0.0257,-0.0239,-0.0236,-0.0232,-0.0192,-0.0178,-0.0152,-0.009,-0.0063,-0.005,-0.0033,0.0027,0.0008,0.0003,0.0028,0.0081,0.0083,0.0084,0.0064,0.0064,0.0064,0,0,-0.0253,-0.0268,-0.0289,-0.0288,-0.0293,-0.0273,-0.0284,-0.0263,-0.0252,-0.0238,-0.0209,-0.0186,-0.0128,-0.0087,-0.0055,-0.0051,-0.0004,-0.004,-0.0045,0.0003,0.0005,0.0007,0.0029,0.0034,-0.0035,-0.0035,-0.0035,0,-0.027,-0.0298,-0.0291,-0.0306,-0.0305,-0.0288,-0.0299,-0.0276,-0.0259,-0.0248,-0.0249,-0.0164,-0.0128,-0.0076,-0.0078,-0.0061,-0.0036,-0.004,-0.0005,-0.0001,0.0003,0.0025,0.0032,-0.0039,-0.0039,-0.0038,-0.0038,0,-0.0293,-0.0323,-0.0328,-0.0345,-0.0337,-0.0342,-0.0322,-0.0322,-0.0306,-0.0279,-0.0246,-0.0196,-0.0147,-0.0129,-0.01,-0.0053,-0.0048,-0.0029,0.0001,-0.0002,0.0022,0.0031,-0.0045,-0.0044,-0.0042,-0.0041,0,0,-0.0319,-0.0346,-0.035,-0.0374,-0.0358,-0.0359,-0.0347,-0.0332,-0.0327,-0.0295,-0.0278,-0.0205,-0.0185,-0.0144,-0.0111,-0.0055,-0.0027,-0.0034,-0.0029,-0.0026,0.0058,0.012,0.0135,-0.0011,-0.0009,-0.0008,0.005,0,-0.0348,-0.0393,-0.0381,-0.0413,-0.0435,-0.0408,-0.0392,-0.0371,-0.0346,-0.033,-0.0261,-0.0231,-0.0188,-0.0179,-0.0119,-0.0041,-0.0003,-0.0045,0.0074,0.0078,0.0123,0.0149,0.0161,0.0221,0.0059,0.006,0.0062,0,-0.0382,-0.0406,-0.0445,-0.0465,-0.0466,-0.0472,-0.0453,-0.044,-0.0394,-0.0374,-0.0329,-0.0285,-0.0203,-0.0179,-0.0034,-0.0068,-0.0012,0.005,0.0054,0.016,0.0159,0.0207,0.0243,0.0076,0.0075,0.0074,0.0073,0,-0.0417,-0.0458,-0.0492,-0.0497,-0.05,-0.0509,-0.0502,-0.046,-0.045,-0.0414,-0.0402,-0.0305,-0.026,-0.0155,-0.0037,-0.0037,0.0114,0.0126,0.023,0.0233,0.0299,0.0306,0.0215,0.0215,0.0215,0.0215,0.0215,0,-0.0458,-0.0488,-0.0523,-0.0541,-0.0573,-0.0552,-0.0565,-0.0551,-0.0518,-0.0503,-0.0435,-0.0399,-0.0248,-0.0152,-0.0049,0.0125,0.0101,0.025,0.027,0.0266,0.027,0.0197,0.0194,0.0217,0.0216,0.0216,0.0216,0,-0.0494,-0.0515,-0.0569,-0.0592,-0.0601,-0.0626,-0.0627,-0.063,-0.0591,-0.0578,-0.057,-0.0458,-0.0315,-0.0179,-0.0004,0.0119,0.0264,0.031,0.0285,0.0304,0.0349,0.0341,0.0466,0.0469,0.0472,0.0474,0.0476,0,-0.0521,-0.0554,-0.0614,-0.0648,-0.0666,-0.0695,-0.0703,-0.068,-0.0676,-0.0606,-0.0598,-0.0473,-0.0363,-0.0079,0.0142,0.0343,0.0297,0.0469,0.0501,0.0377,0.0383,0.037,0.0359,0.0526,0.0529,0.053,0.0532,0,-0.0565,-0.059,-0.0629,-0.0698,-0.074,-0.0773,-0.0788,-0.0795,-0.0751,-0.0693,-0.0593,-0.0498,-0.0236,0.0041,0.0292,0.0405,0.0453,0.0515,0.0403,0.047,0.0443,0.0445,0.043,0.0547,0.0545,0.0544,0.0543,0.0543,-0.0597,-0.064,-0.0696,-0.0757,-0.0807,-0.0842,-0.0854,-0.0829,-0.0787,-0.0662,-0.0563,-0.0327,-0.0125,0.0323,0.0435,0.0572,0.0598,0.0661,0.0652,0.0642,0.0648,0.0629,0.0766,0.0766,0.0766,0.0766,0.0766,0,-0.0639,-0.0682,-0.0744,-0.0822,-0.0867,-0.0883,-0.0898,-0.0874,-0.0798,-0.058,-0.0408,-0.0118,0.0193,0.0354,0.062,0.076,0.0706,0.0742,0.066,0.0648,0.0637,0.0637,0.0755,0.0755,0.0754,0.0753,0,0,-0.0662,-0.0725,-0.0752,-0.0847,-0.0897,-0.0933,-0.0932,-0.0877,-0.0719,-0.0504,-0.024,0.0094,0.0303,0.0482,0.0601,0.0692,0.0622,0.0679,0.0694,0.0574,0.056,0.0619,0.0612,0,0,0,0,0]}],[{"header":{"parameterUnit":"m.s-1","parameterCategory":2,"la1":30.2991,"la2":30.254,"lo1":-89.0895,"lo2":-89.0444,"dy":0.0017,"dx":0.0017,"nx":28,"ny":28,"refTime":"2025-04-15T21:00:00:Z","depth":"4","parameterNumber":2,"parameterNumberName":"U-component_of_CURRENTS"},"data":[0,0,0,0,0,0,0,0,0,0,0,0,0,0,0,0,0,0,0,0,0,0,0,0,0,0,0,0,0,0,0,0,0,0,0,0,0,0,0,0,0,0,0,0,0,0,0,0,0,0,0,0,0,0,0,0,0,0,-0.1276,-0.1276,0,-0.1324,-0.1325,-0.1326,-0.1351,-0.1351,-0.1351,-0.135,-0.1388,-0.1389,-0.1391,0,0,0,0,0,0,0,0,0,0,0,0,0,-0.1239,-0.1239,-0.1276,-0.1276,-0.1277,-0.1324,-0.1325,-0.1326,-0.1351,-0.1351,-0.1351,-0.135,-0.1388,-0.1389,-0.1391,0,0,0,0,0,0,0,0,0,0,0,0,0,-0.1271,-0.124,-0.1276,-0.1293,-0.1294,-0.1324,-0.1325,-0.1326,-0.1351,-0.1351,-0.135,-0.135,-0.1387,-0.1389,-0.1391,-0.141,0,0,-0.1397,-0.1398,0,0,0,0,0,0,0,0,-0.1269,-0.1272,-0.129,-0.1291,-0.1293,-0.1328,-0.1325,-0.1353,-0.1351,-0.1333,-0.135,-0.135,-0.1365,-0.1369,-0.1384,-0.1412,-0.1414,-0.1397,-0.1398,-0.1399,-0.1399,0,0,0,0,0,0,0,-0.1267,-0.1271,-0.1299,-0.129,-0.1292,-0.1308,-0.1312,-0.1331,-0.1353,-0.1335,-0.1336,-0.1336,-0.1367,-0.1382,-0.1385,-0.1414,-0.1397,-0.1399,-0.14,-0.14,-0.149,-0.1492,0,0,0,0,0,0,-0.1253,-0.1268,-0.1297,-0.13,-0.1276,-0.1309,-0.1314,-0.132,-0.1353,-0.1357,-0.1336,-0.1337,-0.1379,-0.1383,-0.1386,-0.1481,-0.1399,-0.1401,-0.1402,-0.1489,-0.1491,-0.1492,0,0,0,0,0,0,-0.1252,-0.1255,-0.1295,-0.1282,-0.1288,-0.1309,-0.1317,-0.1321,-0.1348,-0.1354,-0.1358,-0.1358,-0.1379,-0.1383,-0.1421,-0.148,-0.1401,-0.1403,-0.1488,-0.149,-0.1491,-0.1626,0,0,0,0,0,0,-0.1251,-0.1255,-0.1266,-0.1281,-0.1288,-0.1317,-0.1317,-0.1322,-0.1346,-0.1348,-0.1374,-0.1377,-0.1379,-0.1419,-0.1423,-0.1481,-0.1405,-0.1486,-0.1489,-0.1491,-0.162,-0.1632,-0.1642,0,0,0,0,0,-0.1249,-0.125,-0.1266,-0.127,-0.1299,-0.1317,-0.1323,-0.1339,-0.1347,-0.1362,-0.1387,-0.1376,-0.1436,-0.1422,-0.1427,-0.1486,-0.1485,-0.1488,-0.1491,-0.1615,-0.163,-0.1642,0,0,0,0,0,0,-0.1233,-0.1253,-0.1271,-0.1278,-0.1302,-0.132,-0.1335,-0.1348,-0.1382,-0.1394,-0.1398,-0.1403,-0.1463,-0.1443,-0.1426,-0.1513,-0.1457,-0.1461,-0.1549,-0.1563,-0.1575,-0.1516,-0.1406,0,0,0,0,0,-0.1237,-0.125,-0.1272,-0.1282,-0.1296,-0.1324,-0.1337,-0.1355,-0.1379,-0.1394,-0.1418,-0.1441,-0.1477,-0.1493,-0.1515,-0.1562,-0.1519,-0.1597,-0.1609,-0.1619,-0.1571,-0.1645,-0.166,-0.1501,-0.1501,-0.1501,0,0,-0.1239,-0.1246,-0.1259,-0.1282,-0.1306,-0.1332,-0.1332,-0.1362,-0.1398,-0.1393,-0.1458,-0.1488,-0.1497,-0.1561,-0.1584,-0.1554,-0.1628,-0.1622,-0.1632,-0.1577,-0.165,-0.1665,-0.1679,-0.1503,-0.1503,-0.1503,0,0,-0.124,-0.1256,-0.1274,-0.1297,-0.1332,-0.1347,-0.1359,-0.1401,-0.1435,-0.1495,-0.1512,-0.1583,-0.1612,-0.1658,-0.1676,-0.1757,-0.1693,-0.1749,-0.1763,-0.1839,-0.1852,-0.1864,-0.1778,-0.1781,-0.1752,-0.1752,-0.1752,0,-0.1244,-0.126,-0.1282,-0.1306,-0.1323,-0.1355,-0.1382,-0.1425,-0.148,-0.151,-0.1525,-0.1619,-0.1668,-0.1737,-0.1769,-0.1792,-0.174,-0.1724,-0.1857,-0.1868,-0.1877,-0.1786,-0.1788,-0.1759,-0.1758,-0.1757,-0.1757,0,-0.1259,-0.1282,-0.1292,-0.1334,-0.1362,-0.1384,-0.144,-0.1486,-0.1533,-0.1575,-0.1663,-0.1734,-0.1792,-0.1829,-0.1824,-0.191,-0.1816,-0.1876,-0.1829,-0.1902,-0.1799,-0.1799,-0.1769,-0.1766,-0.1764,-0.1762,0,0,-0.1237,-0.1291,-0.1297,-0.1324,-0.1375,-0.1398,-0.1464,-0.1521,-0.1568,-0.1649,-0.1713,-0.182,-0.1863,-0.188,-0.1917,-0.1955,-0.2013,-0.1922,-0.1923,-0.184,-0.2032,-0.1929,-0.1917,-0.2096,-0.2098,-0.21,-0.1913,0,-0.1241,-0.1274,-0.1306,-0.1355,-0.1378,-0.1429,-0.1481,-0.1549,-0.1618,-0.1697,-0.1784,-0.1874,-0.1885,-0.1944,-0.1995,-0.2011,-0.2021,-0.2046,-0.1963,-0.1956,-0.1868,-0.1921,-0.2106,-0.1912,-0.1912,-0.1912,-0.1912,0,-0.1232,-0.1261,-0.1304,-0.136,-0.1377,-0.1419,-0.1498,-0.1557,-0.1665,-0.1725,-0.1818,-0.189,-0.197,-0.2005,-0.2027,-0.2027,-0.2024,-0.2012,-0.2009,-0.1856,-0.1857,-0.1834,-0.1909,-0.191,-0.191,-0.191,-0.191,0,-0.1183,-0.1245,-0.1275,-0.13,-0.1384,-0.1423,-0.1468,-0.1567,-0.1606,-0.1762,-0.1783,-0.1914,-0.196,-0.2009,-0.2018,-0.2031,-0.1987,-0.2046,-0.1914,-0.19,-0.1986,-0.1976,-0.2068,-0.2069,-0.2069,-0.207,-0.207,0,-0.1142,-0.1175,-0.1264,-0.1288,-0.1329,-0.141,-0.1465,-0.1534,-0.1624,-0.166,-0.1802,-0.1827,-0.1966,-0.1975,-0.1995,-0.1912,-0.1999,-0.1873,-0.1873,-0.2035,-0.2033,-0.1981,-0.1973,-0.2062,-0.2064,-0.2065,-0.2067,0,-0.1085,-0.1139,-0.1185,-0.1281,-0.1306,-0.1349,-0.1416,-0.1452,-0.1538,-0.1585,-0.1634,-0.174,-0.1762,-0.1818,-0.1876,-0.1844,-0.1832,-0.1791,-0.1835,-0.1846,-0.1666,-0.1667,-0.1594,-0.159,-0.1586,-0.1583,-0.158,0,-0.1052,-0.1072,-0.1162,-0.1179,-0.1226,-0.1287,-0.131,-0.1409,-0.1432,-0.1511,-0.1507,-0.1567,-0.1639,-0.1555,-0.1675,-0.1666,-0.169,-0.162,-0.1738,-0.1623,-0.1631,-0.1638,-0.1644,-0.1574,-0.1573,-0.1572,-0.1571,0,-0.0996,-0.1038,-0.107,-0.1107,-0.1142,-0.1171,-0.1211,-0.1206,-0.1314,-0.1368,-0.1383,-0.1432,-0.1417,-0.1491,-0.1482,-0.1506,-0.165,-0.158,-0.1589,-0.1699,-0.1598,-0.1611,-0.1622,-0.1557,-0.1559,-0.1561,-0.1561,0,-0.0941,-0.0945,-0.0987,-0.1017,-0.1048,-0.1062,-0.1094,-0.1114,-0.1147,-0.1237,-0.1243,-0.1318,-0.1405,-0.14,-0.1413,-0.1413,-0.1418,-0.1399,-0.1418,-0.1434,-0.1487,-0.1341,-0.1195,0,0,0,0,0,-0.0884,-0.0881,-0.0888,-0.0918,-0.0948,-0.0981,-0.1026,-0.1066,-0.1146,-0.1125,-0.1188,-0.1209,-0.1244,-0.1286,-0.1259,-0.134,-0.1418,-0.1302,-0.1405,-0.1483,-0.1499,-0.1587,0,0,0,0,0,0,-0.0835,-0.0847,-0.086,-0.0841,-0.0843,-0.0877,-0.0914,-0.097,-0.0963,-0.1049,-0.1074,-0.1138,-0.1185,-0.1248,-0.1237,-0.1248,-0.129,-0.1351,-0.1348,-0.1475,-0.1489,-0.1501,-0.1597,0,0,0,0,0]},{"header":{"parameterUnit":"m.s-1","parameterCategory":2,"la1":30.2991,"la2":30.254,"lo1":-89.0895,"lo2":-89.0444,"dy":0.0017,"dx":0.0017,"nx":28,"ny":28,"refTime":"2025-04-15T21:00:00:Z","depth":"4","parameterNumber":3,"parameterNumberName":"V-component_of_CURRENTS"},"data":[0,0,0,0,0,0,0,0,0,0,0,0,0,0,0,0,0,0,0,0,0,0,0,0,0,0,0,0,0,0,0,0,0,0,0,0,0,0,0,0,0,0,0,0,0,0,0,0,0,0,0,0,0,0,0,0,0,0,-0.0043,-0.0043,0,-0.0042,-0.0042,-0.0042,-0.0017,-0.0017,-0.0016,-0.0015,0.0016,0.0017,0.0017,0,0,0,0,0,0,0,0,0,0,0,0,0,0.0014,0.0013,-0.0043,-0.0043,-0.0043,-0.0042,-0.0042,-0.0042,-0.0017,-0.0017,-0.0016,-0.0015,0.0016,0.0017,0.0017,0,0,0,0,0,0,0,0,0,0,0,0,0,-0.0,0.0012,-0.0043,-0.0031,-0.0029,-0.0042,-0.0042,-0.0042,-0.0018,-0.0017,-0.0016,-0.0015,0.0016,0.0017,0.0017,0.0,0,0,0.0018,0.0018,0,0,0,0,0,0,0,0,0.0,-0.0003,-0.0032,-0.0031,-0.003,-0.0029,-0.0011,-0.0027,-0.0018,-0.0022,-0.0015,-0.0014,0.0003,0.0005,0.0003,0.0002,0.0003,0.0018,0.0018,0.0019,0.0019,0,0,0,0,0,0,0,0.0001,-0.0002,-0.0042,-0.0032,-0.0031,-0.0013,-0.0014,-0.0014,-0.0014,-0.0021,-0.002,-0.002,0.0004,0.0002,0.0004,0.0004,0.0018,0.0018,0.0019,0.0019,-0.004,-0.0042,0,0,0,0,0,0,-0.0003,-0.0002,-0.0042,-0.0042,-0.0013,-0.0015,-0.0016,-0.003,-0.0014,-0.0011,-0.0021,-0.0019,0.0001,0.0003,0.0005,-0.0018,0.0019,0.0019,0.0019,-0.0038,-0.0041,-0.0043,0,0,0,0,0,0,-0.0002,-0.0007,-0.0042,-0.0021,-0.0024,-0.0017,-0.0033,-0.0031,-0.0029,-0.0015,-0.0011,-0.0021,0.0002,0.0004,0.0002,-0.0016,0.0019,0.0019,-0.0036,-0.0039,-0.0042,-0.006,0,0,0,0,0,0,-0.0,-0.0007,-0.0018,-0.0022,-0.0026,-0.006,-0.0034,-0.0031,-0.0031,-0.0029,-0.0014,-0.001,0.0003,0.0001,0.0002,-0.0015,0.002,-0.0034,-0.0038,-0.0041,-0.0057,-0.0063,-0.0068,0,0,0,0,0,0.0001,-0.0025,-0.0019,-0.0024,-0.0042,-0.0061,-0.0062,-0.0052,-0.0032,-0.0044,-0.0028,-0.001,-0.0021,0.0,0.0002,-0.0015,-0.0032,-0.0037,-0.004,-0.0054,-0.0061,-0.0068,0,0,0,0,0,0,-0.0009,-0.0025,-0.0018,-0.0049,-0.0056,-0.0057,-0.0066,-0.0055,-0.0052,-0.0044,-0.0022,-0.0019,-0.0028,-0.0028,-0.0006,-0.0048,-0.0028,-0.0032,-0.004,-0.0046,-0.0051,-0.0082,0.002,0,0,0,0,0,-0.0017,-0.0039,-0.0047,-0.007,-0.0075,-0.0068,-0.0072,-0.0066,-0.0064,-0.0061,-0.005,-0.0047,-0.0047,-0.0049,-0.005,-0.007,-0.0042,-0.0087,-0.0092,-0.0096,-0.0124,-0.0089,-0.0092,-0.0056,-0.0056,-0.0056,0,0,-0.0026,-0.0037,-0.0049,-0.0073,-0.0074,-0.0097,-0.0068,-0.0081,-0.0095,-0.0059,-0.0073,-0.0058,-0.0055,-0.0073,-0.008,-0.0073,-0.0087,-0.0102,-0.0105,-0.0131,-0.0093,-0.0096,-0.0099,-0.0059,-0.0058,-0.0058,0,0,-0.0057,-0.0067,-0.0092,-0.0105,-0.0115,-0.0117,-0.0121,-0.0125,-0.0121,-0.0135,-0.0109,-0.0108,-0.0116,-0.0115,-0.0115,-0.0158,-0.011,-0.0163,-0.0218,-0.0182,-0.0184,-0.0185,-0.0121,-0.0116,-0.0172,-0.0172,-0.0172,0,-0.0062,-0.0103,-0.0102,-0.0131,-0.0147,-0.0128,-0.0159,-0.016,-0.0163,-0.0165,-0.0148,-0.0161,-0.014,-0.0166,-0.018,-0.0167,-0.0133,-0.0183,-0.0185,-0.0187,-0.0188,-0.0121,-0.0116,-0.0174,-0.0174,-0.0173,-0.0173,0,-0.0112,-0.0145,-0.0163,-0.0194,-0.021,-0.0236,-0.0238,-0.0248,-0.0237,-0.0232,-0.025,-0.0231,-0.0237,-0.0235,-0.0218,-0.0233,-0.0197,-0.0182,-0.0159,-0.0192,-0.012,-0.0114,-0.0176,-0.0175,-0.0175,-0.0174,0,0,-0.0124,-0.0186,-0.0192,-0.0221,-0.0248,-0.0269,-0.0294,-0.0315,-0.033,-0.0329,-0.035,-0.035,-0.0326,-0.0329,-0.0306,-0.0295,-0.0243,-0.0253,-0.025,-0.0172,-0.0141,-0.005,-0.0034,-0.0221,-0.0221,-0.0222,-0.0074,0,-0.0162,-0.0231,-0.0251,-0.0316,-0.0352,-0.0355,-0.0387,-0.0398,-0.0393,-0.0405,-0.0388,-0.0392,-0.0365,-0.036,-0.0343,-0.028,-0.0237,-0.0284,-0.0139,-0.0134,-0.0034,-0.0028,-0.0222,-0.0069,-0.0068,-0.0067,-0.0066,0,-0.0204,-0.0247,-0.0318,-0.0386,-0.0402,-0.0435,-0.0477,-0.0502,-0.0506,-0.05,-0.0499,-0.0466,-0.0455,-0.0416,-0.0328,-0.0358,-0.0253,-0.02,-0.0192,-0.0106,-0.0034,-0.0041,-0.0055,-0.0056,-0.0057,-0.0058,-0.0058,0,-0.0217,-0.0296,-0.0356,-0.038,-0.0448,-0.0478,-0.051,-0.0529,-0.0548,-0.055,-0.0551,-0.0528,-0.05,-0.0418,-0.0279,-0.03,-0.0157,-0.0157,0.0027,0.0037,-0.008,-0.008,-0.0069,-0.0069,-0.0069,-0.007,-0.007,0,-0.0255,-0.0304,-0.0369,-0.0404,-0.0472,-0.0508,-0.0568,-0.0587,-0.061,-0.0621,-0.0595,-0.0575,-0.05,-0.0396,-0.0285,-0.0099,-0.0137,0.0017,0.0074,-0.0087,-0.0091,-0.0072,-0.0075,-0.0064,-0.0065,-0.0066,-0.0067,0,-0.0265,-0.0311,-0.0382,-0.0458,-0.0482,-0.0529,-0.0599,-0.0634,-0.0655,-0.0665,-0.066,-0.0599,-0.0453,-0.0336,-0.0169,-0.008,0.0072,0.0167,0.0013,0.006,0.0241,0.0235,0.0351,0.0355,0.0359,0.0362,0.0364,0,-0.0282,-0.0319,-0.0405,-0.0443,-0.0481,-0.0551,-0.0595,-0.0644,-0.0667,-0.0656,-0.0649,-0.0521,-0.0446,-0.0149,-0.0032,0.0205,0.0244,0.0313,0.023,0.0236,0.028,0.0269,0.0259,0.037,0.0371,0.0372,0.0373,0,-0.0305,-0.033,-0.038,-0.0449,-0.0505,-0.0574,-0.0632,-0.0648,-0.0684,-0.07,-0.0591,-0.0447,-0.0264,-0.0082,0.0125,0.0282,0.0234,0.0351,0.0343,0.0265,0.0261,0.0299,0.0284,0.0386,0.0384,0.0383,0.0382,0,-0.0306,-0.0336,-0.0391,-0.0447,-0.0517,-0.057,-0.0612,-0.0615,-0.0633,-0.0613,-0.0554,-0.0384,-0.0294,-0.0031,0.015,0.0319,0.0337,0.0343,0.0335,0.0323,0.0261,0.0248,0.0419,0,0,0,0,0,-0.0302,-0.0326,-0.0385,-0.0448,-0.0515,-0.0549,-0.0622,-0.0657,-0.0676,-0.0584,-0.0569,-0.0379,-0.0103,0.0003,0.0196,0.0198,0.0348,0.0424,0.0345,0.0456,0.0441,0.038,0,0,0,0,0,0,-0.0297,-0.0345,-0.0372,-0.0431,-0.0465,-0.0537,-0.058,-0.0601,-0.0551,-0.054,-0.0383,-0.0325,-0.0051,-0.0182,0.0212,0.0257,0.023,0.0546,0.055,0.0464,0.0451,0.0439,0.0371,0,0,0,0,0]}]]